Location: Bletchingley
(51.2333°N, 0.1000°W)
Time: 14:20:32
(UTC+00:00)

NOSS 8 (E) - Pass Details

Date: 18 September 2020
Orbit: 385 x 1787 km, 63.3° (Epoch: 27 October)

Event Time Altitude Azimuth Distance (km) Brightness Sun altitude
Rises 19:08:06 0° 226° (SW) 2,424 8.6 -10.3°
Reaches altitude 10° 19:10:16 10° 227° (SW) 1,476 7.5 -10.6°
Maximum altitude 19:13:23 80° 316° (NW) 400 4.2 -11.1°
Drops below altitude 10° 19:16:25 10° 43° (NE) 1,439 6.7 -11.5°
Enters shadow 19:18:10 - 44° (NE) 2,208 7.6 -11.8°
